Simultaneous Nadir Overpasses (SNOs) Predictions

Prediction of SNOs between LANDSAT-8 and NOAA-19 Satellite Orbit:

Table of predicted SNOs for the next 14.0 days since TLE Epoch: 10/17/2020
Index Date (LANDSAT-8) Time (LANDSAT-8) Lat,Lon (LANDSAT-8) SZA (LANDSAT-8 ) Date (NOAA-19) Time (NOAA-19) Lat,Lon (NOAA-19) SZA (NOAA-19 ) Distance(km) Time Diff (sec)
1 10/17/2020 04:02:16 79.98, 146.93 90.75 10/17/2020 04:03:08 79.99, 146.95 90.79 1.37 52
2 10/19/2020 08:46:32 80.03, 76.30 91.64 10/19/2020 08:45:23 80.01, 76.25 91.59 2.75 69
3 10/19/2020 09:36:00 -79.99,-116.36 88.41 10/19/2020 09:36:22 -79.99,-116.28 88.40 1.73 22
4 10/21/2020 15:09:43 80.01, -19.63 92.43 10/21/2020 15:09:38 80.01, -19.81 92.41 3.46 5
5 10/23/2020 20:43:27 -80.03, 77.07 86.77 10/23/2020 20:42:53 -80.01, 77.03 86.80 2.53 34
6 10/23/2020 21:32:54 80.00,-115.57 93.19 10/23/2020 21:33:52 80.00,-115.56 93.22 0.30 58
7 10/26/2020 02:17:10 80.04, 173.75 94.03 10/26/2020 02:16:07 80.02, 173.72 93.98 3.00 63
8 10/26/2020 03:06:38 -80.01, -18.87 86.02 10/26/2020 03:07:08 -80.00, -18.85 86.01 1.23 30
9 10/28/2020 08:40:21 80.02, 77.77 94.76 10/28/2020 08:40:22 80.02, 77.64 94.75 2.61 1
10 10/30/2020 14:14:05 -80.04, 174.47 84.49 10/30/2020 14:13:39 -80.02, 174.39 84.52 1.91 26
